カタログに戻る

STARLINK-34102

運用中通信VLEO
NORAD 63806·PAYLOAD·🇺🇸 United States

打ち上げ May 4, 2025 から Cape Canaveral Space Force Station

Loading…

次のパス (今後24時間)

TLE

最新Source: CelesTrak SupGP

元期: Sep 14, 2026, 21:04 UTC

1 63806C 25092C   26257.87826389 -.00006366  00000+0 -23051-3 0  2577
2 63806  43.0006 184.4515 0001380 265.7403 130.8013 15.27591158    16

AllMySatでSTARLINK-34102をリアルタイム追跡

Download on the App Store